Location: Beasley Cemetery
(37.8034°N, 89.2506°W)
Time: 01:10:45
(UTC+00:00)

Daily predictions for brighter satellites

Satellite Brightness Start Highest point End
(mag) Time Altitude Azimuth Time Altitude Azimuth Time Altitude Azimuth
Cosmos 2061 Rocket 4.2 01:25:47 10° S 01:32:00 83° W 01:38:13 10° N
IRS-1C Rocket 4.1 01:30:00 10° SSE 01:35:14 79° ENE 01:40:31 10° N
CENTAUR R/B 3.4 01:26:50 10° NNW 01:35:21 87° ENE 01:44:28 10° SSE
USA 186 0.9 01:33:22 10° SSE 01:35:49 81° E 01:38:12 10° N
CSL-04 Rocket 3.7 01:32:10 10° SSE 01:37:25 78° ENE 01:42:48 10° N
Cosmos 2227 Rocket 3.1 01:36:07 10° N 01:41:16 34° ENE 01:46:21 10° SE
SL-4 R/B 3.9 01:37:54 10° NNW 01:41:43 25° NNE 01:45:22 10° E
Ariane Rocket 4.5 01:38:53 10° ESE 01:42:36 21° ENE 01:46:20 10° NNE
Cosmos 1400 Rocket 3.9 01:39:11 10° NNW 01:42:54 44° W 01:46:38 10° SSW
Cosmos 1544 3.0 01:41:33 10° N 01:45:03 64° E 01:48:32 10° SSE
USA 238 DEB 4.1 01:39:21 10° NNW 01:46:43 68° NE 01:54:25 10° SE
Cosmos 1980 Rocket 3.2 01:42:24 10° SSE 01:46:48 24° E 01:51:14 10° NE
USA 238 4.1 01:39:28 10° NNW 01:46:50 68° NE 01:54:31 10° SE
Cosmos 1151 Rocket 3.0 01:45:38 10° S 01:49:55 86° E 01:54:12 10° N
Resurs 1-3 3.7 01:49:26 10° SSE 01:53:45 63° ENE 01:58:06 10° N
Cosmos 2369 4.3 01:49:28 10° SSE 01:54:27 33° ESE 01:59:27 10° NE
ASTRO E2 3.6 01:51:20 10° WSW 01:54:50 31° S 01:57:52 12° ESE
Cosmos 1666 Rocket 3.6 01:52:35 10° N 01:56:59 66° E 02:01:23 10° SSE
Gbstr 26 Del rocket 4.3 01:50:13 10° NW 01:57:41 71° SW 02:03:33 11° SE
Cosmos 44 3.4 01:55:27 10° NW 01:59:43 61° WSW 02:04:00 10° SSE
SJ 16-02 2.9 02:03:00 13° SE 02:04:58 17° E 02:07:52 10° NE
Cosmos 1697 Rocket 2.6 02:00:04 10° SSW 02:05:42 77° ESE 02:11:23 10° NNE
Cosmos 1633 Rocket 3.0 02:01:33 10° N 02:05:53 67° E 02:10:12 10° SSE
JB-3 4.4 02:02:49 10° NNE 02:07:00 85° ESE 02:11:08 10° S
Cosmos 2360 4.2 02:02:49 10° SSW 02:08:27 76° ESE 02:14:09 10° NNE
H-2A R/B 3.6 02:06:18 10° S 02:10:32 46° W 02:14:41 10° NNW
OAO 3 Rocket 3.3 02:06:00 10° W 02:10:52 64° S 02:15:07 14° ESE
CZ-4 R/B 4.3 02:09:33 10° WSW 02:11:31 13° W 02:13:29 10° WNW
Landsat 7 3.8 02:07:51 10° SSE 02:12:33 80° ENE 02:17:17 10° N
Cosmos 1570 Rocket 4.2 02:08:48 10° NNW 02:14:01 73° WSW 02:19:15 10° S
ATLAS CENTAUR Rocket 3.7 02:04:09 10° SW 02:15:18 26° S 02:18:22 16° SE
Cosmos 1470 Rocket 3.8 02:12:18 10° N 02:16:30 49° E 02:19:36 17° SSE
Cosmos 2297 Rocket 2.3 02:12:42 10° NNW 02:18:21 78° WSW 02:23:35 12° SSE
Cosmos 1486 Rocket 4.0 02:13:34 10° SSW 02:18:52 83° ESE 02:24:10 10° NNE
Cosmos 1515 3.7 02:15:53 10° S 02:19:35 59° E 02:23:18 10° NNE
Resurs 01 Rocket 1.7 02:16:11 15° SSE 02:19:40 58° ENE 02:24:00 10° N
ARGOS Delta rocket 4.1 02:18:17 10° NNE 02:23:46 73° E 02:29:07 10° S
Cosmos 1315 Rocket 3.4 02:20:54 10° NNW 02:24:53 57° W 02:28:48 10° S
Cosmos 1515 Rocket 3.5 02:22:19 10° S 02:26:39 70° E 02:31:00 10° NNE
USA 129 3.7 02:28:07 13° WSW 02:28:07 13° WSW 02:28:36 10° WNW
Cosmos 389 Rocket 3.0 02:28:29 10° N 02:31:48 40° ENE 02:33:03 28° SE
Cosmos 1340 2.5 02:28:29 12° S 02:31:57 76° E 02:35:42 10° NNE
Cosmos 405 2.9 02:29:00 10° N 02:32:24 81° W 02:34:34 21° S
SL-16 R/B 3.9 02:33:55 14° E 02:33:55 14° E 02:36:39 10° ENE
Cosmos 1184 Rocket 2.5 02:33:05 26° S 02:34:36 66° E 02:37:36 10° NNE
Cosmos 2228 Rocket 4.2 02:37:13 24° ESE 02:38:29 28° E 02:42:22 10° NNE
Cosmos 921 Rocket 4.0 02:35:04 10° N 02:39:13 34° ENE 02:40:56 25° ESE
CARTOSAT-1 4.1 02:38:19 26° SE 02:40:13 43° ENE 02:44:19 10° N
Meteor 1-27 Rocket 3.8 02:34:52 10° S 02:40:36 83° W 02:46:30 10° N
Cosmos 1743 2.6 02:39:50 10° N 02:43:37 70° E 02:45:13 32° SSE
ATLAS 2AS CENTAUR R/B 2.9 02:37:29 10° SSW 02:45:11 65° ESE 02:52:45 10° NE
Cosmos 1503 Rocket 4.0 02:42:45 10° SSW 02:47:59 88° ESE 02:53:20 10° NNE
BREEZE-M DEB (TANK) 4.4 02:45:08 10° WNW 02:48:27 33° SW 02:51:15 20° SSE
CZ-4B R/B 3.0 02:46:53 10° N 02:49:46 32° WNW 02:52:35 10° SW
Cosmos 2278 3.7 02:48:35 14° S 02:53:20 56° ESE 02:58:53 10° NNE
USA 245 4.5 02:51:12 27° SE 02:54:21 63° ENE 03:00:35 10° N
ERS-1 Rocket 4.0 02:52:45 25° ESE 02:54:28 32° ENE 02:58:54 10° N
Cosmos 2219 3.5 02:50:48 10° NNW 02:56:21 63° WSW 02:59:50 23° S
SPOT 1/Viking Rocket 3.7 02:53:29 21° S 02:57:00 71° WSW 03:02:10 10° NNW
Meteor 1-11 Rocket 4.3 02:52:22 10° NNW 02:58:14 61° W 03:03:02 15° S
Cosmos 1809 Rocket 4.5 02:53:34 10° N 02:59:40 67° E 03:02:53 29° SSE
H-2A R/B 4.5 02:57:42 10° NNW 03:00:49 22° WNW 03:03:58 10° WSW
ARIANE 5 R/B 4.2 03:00:48 20° E 03:01:35 21° ENE 03:04:56 10° NNE
Cosmos 2082 3.6 02:58:06 10° NNW 03:03:45 74° ENE 03:06:11 35° SE
Cosmos 1464 Rocket 4.3 02:58:38 10° SSW 03:04:48 65° W 03:10:56 10° N
Cosmos 2263 Rocket 2.9 03:03:27 10° N 03:08:40 39° ENE 03:10:33 30° ESE
Okean 1 3.2 03:09:20 39° SSW 03:10:46 84° W 03:14:48 10° N
Cosmos 1536 3.9 03:07:52 10° NNW 03:11:40 41° W 03:13:44 23° SSW
RESURS DK-1 2.2 03:09:41 27° SSW 03:11:54 89° NW 03:16:02 10° NNE
Cosmos 1378 3.5 03:16:09 47° ENE 03:16:09 47° ENE 03:19:17 10° NNE
Cosmos 2344 4.1 03:08:31 10° SW 03:16:04 59° NW 03:23:29 10° NNE
ATLAS 3B R/B 4.2 03:10:11 10° NNW 03:16:24 28° NE 03:21:03 16° E
Ariane Rocket 3.9 03:18:14 21° SSW 03:21:13 43° W 03:26:03 10° NNW
SL-4 R/B 2.0 03:17:13 10° NW 03:21:42 74° SW 03:22:14 64° SSE
Cosmos 1092 Rocket 4.1 03:17:28 10° N 03:23:34 59° E 03:25:30 41° SE
Cosmos 2227 Rocket 3.6 03:20:16 10° NW 03:25:11 31° WSW 03:28:30 17° SSW
Nadezhda 4 Rocket 4.0 03:18:59 10° N 03:25:11 75° W 03:28:17 31° S
Cosmos 1634 Rocket 4.1 03:23:39 40° SSE 03:25:42 58° E 03:31:46 10° NNE
CZ-2C R/B 3.7 03:21:14 10° NNE 03:26:02 75° ESE 03:27:10 51° S
Cosmos 1980 Rocket 3.4 03:25:10 10° SW 03:30:28 42° WNW 03:35:51 10° N
Meteor 2-14 Rocket 4.5 03:27:10 10° N 03:33:16 77° W 03:35:49 37° S
SPOT 5 3.0 03:34:23 50° S 03:35:48 88° WSW 03:41:02 10° NNW
Cosmos 2322 Rocket 2.8 03:38:50 38° E 03:38:50 38° E 03:43:32 10° NE
ISS -1.6 03:36:41 10° NNW 03:39:18 21° NNE 03:39:31 21° NNE
Cosmos 1733 Rocket 4.0 03:36:03 10° N 03:39:49 36° ENE 03:39:49 36° ENE
Terra 1.7 03:40:18 65° ESE 03:40:46 70° ENE 03:45:32 10° N
Cosmos 1975 3.0 03:37:21 10° N 03:41:00 61° NE 03:41:00 61° NE
Cosmos 2333 Rocket 4.4 03:43:38 10° ENE 03:43:38 10° ENE 03:43:48 10° ENE
Helios 1A Rocket 3.3 03:41:33 51° WSW 03:41:51 53° W 03:45:46 10° NNW
Meteor 2-4 Rocket 3.7 03:40:03 46° S 03:41:51 84° E 03:47:34 10° N
SJ 16-02 2.8 03:39:52 14° SW 03:43:11 35° WNW 03:47:12 10° N
Timation 2 Rocket 4.3 03:38:17 10° NNW 03:44:52 68° WSW 03:47:15 42° S
H-2A ROCKET BODY 4.3 02:45:07 10° W 03:47:23 58° SSW 03:52:59 36° SE
Cosmos 1862 Rocket 4.1 03:49:17 48° ENE 03:49:17 48° ENE 03:52:59 10° NNE
Cosmos 2026 Rocket 3.9 03:43:38 10° N 03:49:50 83° E 03:51:25 53° SSE
OAO 3 Rocket 4.2 03:49:29 10° W 03:52:53 34° SW 03:52:53 34° SW
Spot 2 Rocket 3.9 03:53:55 46° SW 03:54:56 54° W 03:59:53 10° NNW
Resurs 01 Rocket 4.3 03:55:18 10° WSW 03:56:29 11° W 03:57:40 10° WNW
Cosmos 773 Rocket 4.5 03:58:25 10° NNW 04:03:26 49° WSW 04:04:06 46° SW
Cosmos 2219 Rocket 4.4 04:06:18 12° ENE 04:06:18 12° ENE 04:07:02 10° ENE
Cosmos 2227 4.1 04:02:14 10° NNW 04:08:01 80° ENE 04:08:34 72° SE
USA 215 3.1 04:03:24 10° NE 04:09:54 64° SE 04:10:52 57° S
Cosmos 2237 4.0 04:17:02 80° SE 04:17:07 80° ESE 04:22:52 10° NNE
SL-16 R/B 2.4 04:15:41 49° SW 04:17:08 69° WNW 04:22:48 10° NNE
Cosmos 1346 Rocket 4.1 04:21:06 36° WNW 04:21:06 36° WNW 04:24:33 10° N
Cosmos 2266 Rocket 4.4 04:19:28 10° N 04:25:25 45° ENE 04:25:37 45° E
Cosmos 2279 Rocket 4.1 04:28:04 56° SW 04:29:14 68° W 04:35:26 10° N
Okean 1-7 4.4 04:32:39 34° NE 04:32:39 34° NE 04:35:17 10° NNE
ERS-1 Rocket 4.4 04:32:44 26° WSW 04:33:12 27° W 04:37:26 10° NW
Cosmos 44 Rocket 3.9 04:30:52 10° NW 04:34:29 49° WNW 04:34:29 49° WNW
ARIANE 5 R/B 4.0 04:38:20 32° W 04:38:20 32° W 04:41:50 10° NNW
Meteor 2-10 4.4 04:33:13 10° N 04:37:44 56° NE 04:37:44 56° NE
Meteor 1-13 Rocket 4.1 04:40:17 82° WNW 04:40:17 82° WNW 04:45:45 10° N
Cosmos 1538 Rocket 4.4 04:36:15 10° NNW 04:40:53 54° W 04:40:53 54° W
Cosmos 2360 Rocket 2.2 04:43:37 77° NNE 04:43:37 77° NNE 04:48:50 10° NNE
Geosat 4.3 04:47:02 61° WNW 04:47:02 61° WNW 04:51:21 10° NNW
Cosmos 2263 Rocket 3.6 04:47:49 10° NW 04:52:15 26° W 04:52:15 26° W
Cosmos 923 Rocket 4.3 04:54:19 10° NNW 04:58:53 66° NNW 04:58:53 66° NNW
Cosmos 1937 Rocket 3.9 05:01:25 58° NNE 05:01:25 58° NNE 05:05:40 10° NNE
Meteor 1-12 Rocket 4.3 04:54:44 10° N 05:00:21 80° NNW 05:00:21 80° NNW
ATLAS CENTAUR R/B 3.3 04:58:02 10° N 05:01:57 28° NE 05:01:57 28° NE
ATLAS 3B R/B 2.8 05:00:19 10° NW 05:07:45 71° WSW 05:08:17 69° SSW
Terra 4.4 05:19:10 10° W 05:19:10 10° W 05:19:47 10° W
Cosmos 2112 Rocket 4.5 05:14:57 10° NNW 05:19:14 58° N 05:19:14 58° N
Cosmos 1680 Rocket 4.0 05:16:16 10° NNW 05:20:26 55° NNW 05:20:26 55° NNW
Cosmos 2322 Rocket 3.8 05:20:35 23° W 05:22:28 27° WNW 05:27:14 10° N
Cosmos 2333 Rocket 2.4 05:25:36 66° NNW 05:25:36 66° NNW 05:30:36 10° NNE
Cosmos 2322 4.1 05:26:30 59° NE 05:26:30 59° NE 05:31:08 10° NNE
Cosmos 1818 4.0 05:21:23 10° NNW 05:26:00 58° NNE 05:26:00 58° NNE
ALOS 2 4.0 05:30:43 36° N 05:30:43 36° N 05:33:23 10° N
Cosmos 1844 Rocket 3.2 05:27:07 10° NNW 05:31:29 51° WNW 05:31:29 51° WNW
Cosmos 1655 Rocket 4.5 05:29:00 10° NNW 05:34:47 49° W 05:34:47 49° W
CZ-4C R/B 3.8 05:32:14 10° NNW 05:39:19 45° NE 05:43:12 29° ESE
Cosmos 2219 Rocket 2.6 05:47:59 59° NNW 05:47:59 59° NNW 05:52:52 10° NNE
USA 215 4.4 05:46:41 10° NNE 05:52:39 39° NNW 05:58:09 12° W
ADEOS Rocket 3.1 06:03:06 64° NW 06:03:06 64° NW 06:08:06 10° NNW
ASTEX 1 4.2 06:00:05 10° N 06:03:36 47° NNE 06:03:36 47° NNE
Cosmos 2237 Rocket 2.9 06:16:53 45° ENE 06:16:53 45° ENE 06:21:18 10° NNE
SL-08 R/B 4.5 06:10:06 10° N 06:16:05 82° NNW 06:16:05 82° NNW
COSMOS 2428 3.3 06:18:12 51° NW 06:18:12 51° NW 06:23:24 10° NNE
Cosmos 1125 Rocket 4.2 06:20:46 51° NE 06:20:46 51° NE 06:24:40 10° NNE
USA 267 3.2 06:24:07 63° ESE 06:25:16 78° NE 06:31:49 10° NW
Cosmos 1417 Rocket 4.5 06:29:57 73° WNW 06:29:57 73° WNW 06:35:53 10° N
USA 229 DEB 4.3 06:26:24 10° NNW 06:33:48 62° NE 06:37:09 36° ESE
USA 229 4.3 06:26:30 10° NNW 06:33:53 61° NE 06:37:17 35° ESE
Resurs 1-4 Rocket 3.8 06:31:22 10° NE 06:35:10 22° E 06:35:10 22° E
ATLAS CENTAUR R/B 4.0 06:36:46 10° NW 06:37:56 16° WNW 06:37:56 16° WNW
Cosmos 2315 Rocket 4.0 06:50:06 73° ESE 06:50:21 74° E 06:56:43 10° N
ADEOS II 4.2 06:47:43 10° NE 06:50:46 15° E 06:51:27 15° E
Cosmos 2278 Rocket 2.3 06:45:20 10° NNW 06:50:48 73° NE 06:50:48 73° NE
Cosmos 1709 Rocket 3.9 06:46:48 10° N 06:52:54 71° E 06:53:12 70° ESE
Cosmos 1455 Rocket 4.5 06:50:57 10° NNE 06:54:30 33° ENE 06:54:30 33° ENE
S3M 4.3 06:57:20 55° W 06:57:25 55° W 07:03:40 10° N
Thor Agena Rocket 3.8 06:53:06 10° NNE 06:57:54 67° ENE 06:57:54 67° ENE
NOSS 3-1 (A) 4.1 06:52:43 10° NW 07:00:35 78° WSW 07:02:42 56° S
Cosmos 332 Rocket 4.3 07:03:02 56° NNE 07:03:02 56° NNE 07:06:49 10° NNE
SL-16 R/B 2.9 07:03:37 41° ESE 07:03:37 41° ESE 07:08:47 10° NE
USA 308 4.4 07:07:42 32° NNW 07:07:42 32° NNW 07:10:52 10° NNE
Cosmos 1975 Rocket 3.9 07:08:11 48° NNE 07:08:11 48° NNE 07:11:32 10° NNE
Cosmos 1980 4.1 07:07:55 52° WNW 07:07:55 52° WNW 07:13:24 10° NNE
Cosmos 1025 Rocket 3.9 07:14:32 47° NE 07:14:32 47° NE 07:17:48 10° NNE
COSMOS 2455 3.9 07:14:13 31° ESE 07:14:44 32° ESE 07:19:59 10° NE
USA 32 4.4 07:17:18 53° NW 07:17:18 53° NW 07:21:52 10° N
EO 1 Delta rocket 4.2 07:13:07 10° N 07:17:23 62° NW 07:17:23 62° NW
SME Rocket 3.7 07:19:18 54° NNE 07:19:18 54° NNE 07:23:08 10° N
NOSS 2-2 (D) 4.4 07:13:43 10° NW 07:19:22 81° WSW 07:20:29 64° S
Meteor 1-24 Rocket 3.7 07:23:37 67° ESE 07:23:59 69° E 07:29:28 10° NNE
Meteor 2-10 Rocket 3.5 07:20:15 10° NNW 07:25:44 77° WNW 07:25:44 77° WNW
CZ-4C R/B 3.4 07:20:44 10° NW 07:28:05 46° WSW 07:28:18 46° WSW
GP-B 4.0 07:24:36 10° N 07:27:49 41° NW 07:27:49 41° NW
Lacrosse 5 1.9 07:35:14 70° NW 07:35:15 70° NW 07:40:22 10° NE
Cosmos 1269 Rocket 4.3 07:30:09 10° NNW 07:35:23 62° ENE 07:36:35 49° ESE
Molniya-1 4.2 07:36:27 65° SSE 07:36:58 70° ESE 07:47:11 10° NE
Cosmos 1544 Rocket 3.9 07:37:09 10° N 07:41:29 58° E 07:41:31 58° E
Lacrosse 5 rocket 2.0 07:43:58 48° NE 07:43:58 48° NE 07:46:57 10° NE
Meteor 2-5 Rocket 3.7 07:45:31 61° WSW 07:46:04 65° W 07:51:44 10° N
CZ-2D R/B 1.9 07:41:52 10° N 07:47:14 80° WNW 07:47:44 72° SW
AQUA 3.7 07:52:06 10° NNE 07:56:53 82° ESE 07:57:19 73° SSE
Cosmos 1703 4.4 07:56:53 35° ESE 07:57:14 35° E 08:00:51 10° NNE
Cosmos 2237 Rocket 3.8 07:58:41 20° WNW 08:00:08 22° NW 08:04:30 10° N
Cosmos 2154 Rocket 4.2 08:00:11 10° N 08:06:31 69° E 08:10:14 26° SSE
Resurs 1-4 Rocket 2.7 08:10:25 10° N 08:15:20 41° WNW 08:16:15 38° W
CRYOSAT 2 4.2 08:15:47 57° SSW 08:16:45 77° W 08:21:38 10° N
SL-16 R/B 2.5 08:15:02 40° S 08:17:17 67° WSW 08:23:30 10° NNW
EO 1 Del DPAF 3.0 08:18:13 10° N 08:21:33 78° NNW 08:21:33 78° NNW
Cosmos 1943 Rocket 2.1 08:16:50 10° NNW 08:22:30 72° WSW 08:25:08 33° S
Cosmos 292 Rocket 3.7 08:22:07 56° SW 08:23:05 75° WNW 08:27:53 10° NNE
Meteor 1-28 Rocket 3.0 08:23:04 74° SSE 08:23:22 87° ENE 08:27:06 10° N
Cosmos 2297 3.6 08:18:24 10° NNW 08:24:10 90° ENE 08:28:41 17° SSE
Cosmos 2074 Rocket 4.2 08:24:15 10° NNW 08:30:20 53° W 08:32:36 36° SW
ADEOS II 2.2 08:25:38 10° N 08:30:47 58° WNW 08:32:22 41° SW
IDEFIX/ARIANE 42P 2.6 08:25:59 10° N 08:31:14 71° WNW 08:33:04 41° SW
Cosmos 2228 3.3 08:27:51 10° N 08:32:12 64° E 08:34:33 25° SSE
Cosmos 2278 Rocket 4.3 08:31:50 10° WNW 08:32:36 11° WNW 08:32:36 11° WNW
Cosmos 1536 Rocket 4.1 08:36:38 40° W 08:37:10 42° W 08:41:21 10° N
Cosmos 1295 Rocket 4.5 08:31:30 10° N 08:37:49 73° W 08:41:44 25° S
Cosmos 2327 Rocket 4.5 08:31:29 10° N 08:37:54 83° W 08:42:28 20° S
NOSS 3-3 (A) 3.8 08:35:52 36° SSW 08:38:16 79° ESE 08:44:27 10° NE
NOSS 3-3 (C) 3.8 08:35:58 36° SSW 08:38:22 78° ESE 08:44:33 10° NE
OAO 2 Rocket 3.9 08:38:03 35° S 08:38:48 37° SSE 08:43:20 10° E
Meteor 1-21 Rocket 4.2 08:41:20 28° S 08:44:26 89° E 08:50:03 10° N
Cosmos 614 Rocket 3.9 08:39:21 10° NNW 08:44:31 70° WSW 08:48:08 20° S
Cosmos 2184 Rocket 4.5 08:39:42 10° NNW 08:45:28 40° W 08:47:43 30° SW
IRS-1D 3.5 08:41:36 10° NNE 08:46:57 86° WNW 08:49:47 28° SSW
DNEPR-1 R/B 3.5 08:45:34 39° S 08:47:02 70° ESE 08:51:27 10° NE
Cosmos 1455 3.5 08:43:56 10° NNW 08:46:22 24° WNW 08:46:22 24° WNW
FALCON 9 R/B 4.3 08:21:57 10° WNW 08:47:21 45° SW 08:54:35 10° SSE
SL-16 R/B 3.5 08:45:29 21° W 08:47:43 26° WNW 08:52:27 10° N
CZ-3A R/B 4.3 08:46:12 18° S 08:48:32 23° SE 09:00:04 10° E
Cosmos 2369 Rocket 2.4 08:43:18 10° NNW 08:48:54 70° ENE 08:54:27 10° SSE
Cosmos 2251 Rocket 3.7 08:43:51 10° NNW 08:49:08 76° ENE 08:54:25 10° SSE
Cosmos 1271 Rocket 3.0 08:48:25 10° NNW 08:52:07 48° W 08:52:48 42° SW
Cosmos 1656 Rocket 4.0 08:51:11 10° NNW 08:56:33 63° ENE 09:01:55 10° SSE
COSMOS 2441 4.4 08:52:31 10° N 08:57:20 64° WNW 08:59:45 28° SSW
COSMOS 2455 3.6 08:57:22 23° WSW 09:00:30 39° NW 09:06:07 10° NNE
MOS 1 Rocket 4.2 09:00:29 25° W 09:00:37 25° W 09:04:09 10° NW
Cosmos 2181 Rocket 4.1 08:57:18 13° S 09:02:57 77° E 09:09:08 10° N
Cosmos 962 Rocket 4.4 08:57:47 10° N 09:03:55 77° W 09:10:00 10° S
Cosmos 1606 Rocket 3.4 09:00:13 10° N 09:04:39 84° W 09:08:22 14° S
MOS 1-B Rocket 4.1 09:01:43 10° SSE 09:07:19 72° ENE 09:12:59 10° N
Cosmos 1603 3.7 09:07:22 23° SSW 09:10:57 73° WNW 09:16:38 10° NNE
Helios 1B rocket 2.3 09:07:10 10° NNE 09:11:15 89° ESE 09:14:02 20° SSW
ALOS 2.9 09:08:53 10° NNE 09:13:28 53° E 09:18:00 10° S
Cosmos 1328 4.0 09:14:11 26° SW 09:16:09 51° W 09:20:02 10° N
Lacrosse 5 4.1 09:15:48 10° WNW 09:19:03 17° NNW 09:22:19 10° NNE
CZ-2C R/B 2.9 09:14:10 10° NNE 09:19:13 61° E 09:24:06 10° S
Helios 1A 4.2 09:19:41 21° WSW 09:20:31 22° W 09:23:51 10° NW
Lacrosse 5 rocket 3.7 09:20:35 10° WNW 09:22:38 14° NNW 09:24:44 10° N
Okean 1-7 Rocket 4.5 09:18:30 10° SSE 09:22:45 48° E 09:26:59 10° NNE
Cosmos 1420 Rocket 4.2 09:20:16 11° S 09:25:11 68° ESE 09:30:21 10° NNE
Lacrosse 4 Rocket 2.4 09:27:42 10° S 09:31:49 44° ESE 09:35:52 10° NE
Cosmos 1371 Rocket 4.0 09:30:20 14° SSW 09:34:44 69° WNW 09:39:54 10° NNE
Cosmos 407 Rocket 3.5 09:30:37 10° NNW 09:35:55 73° WSW 09:41:08 10° S
Cosmos 1892 Rocket 4.1 09:33:24 16° SW 09:36:41 42° W 09:40:57 10° N
Meteor 1-11 4.3 09:34:46 10° SSW 09:40:33 67° W 09:46:19 10° N
Cosmos 1825 2.8 09:37:46 10° S 09:41:23 55° E 09:45:02 10° NNE
GPS 2-04 Rocket1 2.7 09:39:12 17° WSW 09:41:36 47° S 09:45:03 10° E
Cosmos 1943 4.1 09:37:59 14° WSW 09:42:17 36° WNW 09:47:31 10° N
Cosmos 1726 Rocket 4.1 09:39:57 10° NNW 09:44:01 37° W 09:48:01 10° SSW
Cosmos 1140 Rocket 3.6 09:40:55 10° NNW 09:46:02 55° WSW 09:51:07 10° S
Cosmos 2366 rocket 4.1 09:41:26 10° NNW 09:47:28 59° W 09:53:32 10° S
SL-08 R/B 4.2 09:43:54 10° SSE 09:48:21 52° ENE 09:52:51 10° N
ATLAS 2A CENTAUR R/B 4.0 09:33:44 10° WSW 09:48:27 41° S 09:54:30 10° ESE
SeaSat 1 2.6 09:45:09 10° NNE 09:50:05 74° ESE 09:55:00 10° SSW
SL-8 Rocket 4.4 09:48:35 10° NNW 09:54:29 43° W 10:00:21 10° SSW
[s.n.52708] 4.0 09:53:18 10° W 09:55:45 29° NW 09:58:16 10° NNE
[s.n.52707] 4.0 09:53:24 10° W 09:55:52 29° NW 09:58:23 10° NNE
[s.n.52703] 4.0 09:53:31 10° W 09:55:59 29° NW 09:58:30 10° NNE
[s.n.52705] 4.0 09:53:37 10° W 09:56:05 29° NW 09:58:37 10° NNE
[s.n.52706] 4.0 09:53:44 10° W 09:56:12 28° NW 09:58:44 10° NNE
[s.n.52701] 4.0 09:53:51 10° W 09:56:19 28° NW 09:58:51 10° NNE
[s.n.52704] 4.0 09:53:58 10° W 09:56:26 28° NW 09:58:58 10° NNE
[s.n.52699] 4.0 09:54:04 10° W 09:56:33 28° NW 09:59:05 10° NNE
[s.n.52702] 4.0 09:54:11 10° W 09:56:41 28° NW 09:59:12 10° NNE
[s.n.52697] 4.1 09:54:18 10° W 09:56:48 28° NW 09:59:19 10° NNE
[s.n.52700] 4.1 09:54:24 10° W 09:56:54 28° NW 09:59:26 10° NNE
Cosmos 1484 Rocket 3.5 09:53:05 10° NNE 09:56:54 55° E 10:00:45 10° S
[s.n.52695] 4.1 09:54:32 10° W 09:57:02 28° NW 09:59:33 10° NNE
[s.n.52698] 4.1 09:54:38 10° W 09:57:08 28° NW 09:59:40 10° NNE
[s.n.52693] 4.1 09:54:45 10° W 09:57:16 28° NW 09:59:47 10° NNE
[s.n.52696] 4.1 09:54:52 10° W 09:57:23 28° NW 09:59:54 10° NNE
[s.n.52691] 4.1 09:55:00 10° W 09:57:30 28° NW 10:00:01 10° NNE
[s.n.52689] 4.1 09:55:07 10° W 09:57:37 28° NW 10:00:08 10° NNE
[s.n.52694] 4.1 09:55:14 10° W 09:57:44 28° NW 10:00:15 10° NNE
[s.n.52692] 4.1 09:55:21 10° W 09:57:51 28° NW 10:00:22 10° NNE
[s.n.52687] 4.1 09:55:28 10° W 09:57:58 27° NW 10:00:29 10° NNE
[s.n.52685] 4.1 09:55:35 10° W 09:58:05 27° NW 10:00:36 10° NNE
IRS-1C 4.3 09:52:57 10° N 09:58:11 58° WNW 10:03:24 10° SSW
[s.n.52690] 4.1 09:55:43 10° W 09:58:12 27° NW 10:00:43 10° NNE
[s.n.52688] 4.1 09:55:50 10° W 09:58:19 27° NW 10:00:50 10° NNE
[s.n.52683] 4.1 09:55:57 10° W 09:58:26 27° NW 10:00:57 10° NNE
[s.n.52686] 4.1 09:56:05 10° W 09:58:34 27° NW 10:01:04 10° NNE
Cosmos 1892 3.2 09:55:04 10° SSW 09:58:38 39° W 10:02:12 10° N
[s.n.52681] 4.1 09:56:12 10° W 09:58:41 27° NW 10:01:11 10° NNE
[s.n.52679] 4.1 09:56:19 10° W 09:58:48 27° NW 10:01:18 10° NNE
[s.n.52684] 4.1 09:56:26 10° W 09:58:56 27° NW 10:01:25 10° NNE
[s.n.52682] 4.1 09:56:33 10° W 09:59:02 27° NW 10:01:32 10° NNE
[s.n.52677] 4.1 09:56:41 10° W 09:59:10 27° NW 10:01:39 10° NNE
[s.n.52680] 4.1 09:56:48 10° W 09:59:17 27° NW 10:01:47 10° NNE
[s.n.52675] 4.2 09:56:56 10° W 09:59:24 27° NW 10:01:54 10° NNE
[s.n.52678] 4.2 09:57:03 10° W 09:59:31 27° NW 10:02:01 10° NNE
[s.n.52673] 4.2 09:57:11 10° W 09:59:40 27° NW 10:02:09 10° NNE
Cosmos 1954 Rocket 4.3 09:54:20 10° NNW 09:59:40 78° ENE 10:04:58 10° SSE
[s.n.52676] 4.2 09:57:18 10° W 09:59:46 27° NW 10:02:16 10° NNE
[s.n.52671] 4.2 09:57:26 10° W 09:59:54 26° NW 10:02:23 10° NNE
[s.n.52669] 4.2 09:57:33 10° W 10:00:01 26° NW 10:02:29 10° NNE
[s.n.52674] 4.2 09:57:40 10° W 10:00:08 26° NW 10:02:37 10° NNE
[s.n.52672] 4.2 09:57:47 10° W 10:00:15 26° NW 10:02:44 10° NNE
[s.n.52667] 4.2 09:57:56 10° W 10:00:23 26° NW 10:02:51 10° NNE
[s.n.52665] 4.2 09:58:02 10° W 10:00:30 26° NW 10:02:59 10° NNE
[s.n.52670] 4.2 09:58:10 10° W 10:00:38 26° NW 10:03:06 10° NNE
[s.n.52668] 4.2 09:58:17 10° W 10:00:45 26° NW 10:03:13 10° NNE
[s.n.52666] 4.2 09:58:25 10° W 10:00:53 26° NW 10:03:21 10° NNE
[s.n.52663] 4.2 09:58:32 10° W 10:00:59 26° NW 10:03:28 10° NNE
[s.n.52662] 4.2 09:58:40 10° W 10:01:07 26° NW 10:03:35 10° NNE
[s.n.52664] 4.2 09:58:47 10° W 10:01:14 26° NW 10:03:43 10° NNE
[s.n.52661] 4.2 09:58:56 10° W 10:01:22 26° NW 10:03:50 10° NNE
[s.n.52660] 4.2 09:59:02 10° W 10:01:29 26° NW 10:03:57 10° NNE
[s.n.52656] 4.2 09:59:11 10° W 10:01:37 26° NW 10:04:05 10° NNE
[s.n.52658] 4.2 09:59:18 10° W 10:01:45 26° NW 10:04:13 10° NNE
[s.n.52659] 4.2 09:59:25 10° W 10:01:51 25° NW 10:04:20 10° NNE
[s.n.52657] 4.2 09:59:33 10° W 10:02:00 25° NW 10:04:27 10° NNE
FENGYUN 3A 4.3 10:00:25 10° N 10:05:24 40° WNW 10:10:24 10° SW
Cosmos 1408 3.8 10:05:19 10° SW 10:08:20 24° WNW 10:11:21 10° NNW
DELTA 2 DEB (DPAF) 4.3 10:06:09 10° S 10:10:26 51° W 10:14:45 10° NNW
ARIANE 5 R/B 2.8 10:05:59 10° N 10:10:52 50° WNW 10:15:40 10° SSW
